Starlink 11373

operational
NORAD ID: 61582 Int'l Des: 2024-187 Owner: SPXS Country: US Constellation: starlink
LEOCIRCULAR

Über Starlink 11373

Beschreibung wird geladen...

Live-Position

3D-Globus wird geladen...

Nächste Überflüge

Höhenverlauf

Altitude vs Time

uPlot chart will show altitude changes over time

Zweizeiliger Elementsatz

1 61582U 24187J 25353.19572376 -.00001005 00000-0 -34302-5 0 9997
2 61582 53.1596 333.3669 0001493 75.9778 284.1405 15.69703862 68102
Epoch: 19. Dez. 2025 • Age: 14 hours

Aktueller Status

Höhe 371.1 km
Geschwindigkeit 7.69 km/s
Subsatellitenpunkt -34.25°S, 62.42°W
Startdatum 18. Okt. 2024
Alter 1.1 years
Typ internet

Technische Details

Klassifizierung Payload
Masse 960.00 kg
Trockenmasse 910.00 kg
Gesamtmasse 960.00 kg
Länge 0.30 m
Durchmesser 4.10 m
Spannweite 29.00 m
Form Box + pan
Hersteller SPXS
Bus-Typ Starlink V2MD
Phasenstatus In Orbit
Besitzer/Staat SPXS/US

Große Konstellationen

Loading constellations...